[[{"header":{"parameterUnit":"m.s-1","parameterCategory":1,"la1":30.2991,"la2":30.254,"lo1":-89.0895,"lo2":-89.0444,"dy":0.0017,"dx":0.0017,"nx":28,"ny":28,"refTime":"2024-05-11T09:00:00:Z","depth":0,"parameterNumber":2,"parameterNumberName":"U-component_of_WINDS"},"data":[0,0,0,0,0,0,0,0,0,0,0,0,0,0,0,0,0,0,0,0,0,0,0,0,0,0,0,0,0,0,0,0,0,0,0,0,0,0,0,0,0,0,0,0,0,0,0,0,0,0,0,0,0,0,0,0,0,0,-6.215,-6.215,0,-6.2137,-6.2137,-6.2137,-6.2052,-6.205,-6.2048,-6.2046,-6.2034,-6.2036,-6.2037,0,0,0,0,0,0,0,0,0,0,0,0,0,-6.2104,-6.2106,-6.215,-6.215,-6.215,-6.2137,-6.2137,-6.2137,-6.2053,-6.205,-6.2048,-6.2045,-6.2034,-6.2036,-6.2038,0,0,0,0,0,0,0,0,0,0,0,0,0,-6.2111,-6.2106,-6.215,-6.2106,-6.2102,-6.2137,-6.2137,-6.2137,-6.2053,-6.205,-6.2047,-6.2044,-6.2033,-6.2036,-6.2038,-6.2115,0,0,-6.2045,-6.2046,0,0,0,0,0,0,0,0,-6.2111,-6.2113,-6.2113,-6.211,-6.2105,-6.2093,-6.2116,-6.2129,-6.2054,-6.2072,-6.2046,-6.2043,-6.2057,-6.2057,-6.2061,-6.2114,-6.2113,-6.2045,-6.2047,-6.2048,-6.2049,0,0,0,0,0,0,0,-6.2111,-6.2113,-6.2145,-6.2113,-6.2108,-6.2088,-6.2086,-6.2118,-6.2082,-6.207,-6.2064,-6.2063,-6.2054,-6.2059,-6.206,-6.2113,-6.2045,-6.2048,-6.2049,-6.205,-6.2227,-6.223,0,0,0,0,0,0,-6.2116,-6.2113,-6.2146,-6.2145,-6.21,-6.2091,-6.2089,-6.21,-6.2081,-6.2075,-6.2066,-6.206,-6.2056,-6.2058,-6.206,-6.2145,-6.2048,-6.205,-6.2052,-6.2224,-6.2228,-6.2231,0,0,0,0,0,0,-6.2115,-6.212,-6.2146,-6.2127,-6.2129,-6.2095,-6.2109,-6.2102,-6.2106,-6.2078,-6.2071,-6.2078,-6.2054,-6.2056,-6.2101,-6.2144,-6.2051,-6.2053,-6.222,-6.2225,-6.2229,-6.232,0,0,0,0,0,0,-6.2114,-6.212,-6.2148,-6.2129,-6.213,-6.2187,-6.2112,-6.2104,-6.2111,-6.2102,-6.2087,-6.2082,-6.2052,-6.2098,-6.2103,-6.2146,-6.2055,-6.2216,-6.2222,-6.2228,-6.2313,-6.2327,-6.234,0,0,0,0,0,-6.2113,-6.2175,-6.215,-6.2154,-6.2165,-6.219,-6.2191,-6.2154,-6.2115,-6.2143,-6.2125,-6.2083,-6.214,-6.2103,-6.2109,-6.2152,-6.2213,-6.222,-6.2227,-6.2307,-6.2324,-6.2339,0,0,0,0,0,0,-6.2201,-6.2171,-6.2143,-6.2201,-6.2198,-6.2176,-6.2209,-6.2175,-6.2184,-6.2175,-6.213,-6.2128,-6.2179,-6.2171,-6.2131,-6.2225,-6.2169,-6.2178,-6.2227,-6.2244,-6.2257,-6.2256,-6.2057,0,0,0,0,0,-6.2227,-6.2249,-6.2223,-6.2276,-6.2276,-6.2244,-6.2253,-6.2225,-6.2221,-6.222,-6.2205,-6.2203,-6.222,-6.2232,-6.2247,-6.2313,-6.2307,-6.2346,-6.2359,-6.237,-6.2377,-6.241,-6.2426,-6.2255,-6.2255,-6.2255,0,0,-6.228,-6.2267,-6.2284,-6.2293,-6.2288,-6.2312,-6.2243,-6.2272,-6.2289,-6.2224,-6.2264,-6.2254,-6.2249,-6.2304,-6.2328,-6.2299,-6.2424,-6.238,-6.2389,-6.2389,-6.2419,-6.2435,-6.2449,-6.226,-6.2259,-6.2258,0,0,-6.2389,-6.2383,-6.2425,-6.2422,-6.2415,-6.2393,-6.2404,-6.2386,-6.2376,-6.2416,-6.2368,-6.2389,-6.242,-6.2418,-6.2421,-6.2531,-6.2492,-6.2538,-6.2606,-6.2638,-6.2651,-6.2663,-6.2699,-6.2713,-6.2546,-6.2546,-6.2546,0,-6.2457,-6.249,-6.2452,-6.2483,-6.2488,-6.2431,-6.2473,-6.2472,-6.2471,-6.2476,-6.2444,-6.2481,-6.2474,-6.2527,-6.2554,-6.2559,-6.2569,-6.2537,-6.2653,-6.2664,-6.2674,-6.2708,-6.2722,-6.2551,-6.2551,-6.255,-6.2549,0,-6.2572,-6.2596,-6.2632,-6.263,-6.264,-6.2677,-6.2644,-6.2659,-6.2631,-6.2613,-6.2654,-6.2644,-6.2655,-6.2667,-6.264,-6.2716,-6.2698,-6.2661,-6.2602,-6.2696,-6.2727,-6.274,-6.2559,-6.2557,-6.2555,-6.2554,0,0,-6.2732,-6.271,-6.2723,-6.2722,-6.2711,-6.2729,-6.2764,-6.2774,-6.2786,-6.2789,-6.2815,-6.2844,-6.2809,-6.2813,-6.2786,-6.2815,-6.29,-6.2774,-6.2773,-6.2794,-6.2979,-6.3004,-6.302,-6.2876,-6.2878,-6.288,-6.2978,0,-6.2834,-6.289,-6.2857,-6.2918,-6.2939,-6.2887,-6.2917,-6.2914,-6.2899,-6.2915,-6.2899,-6.2918,-6.2873,-6.2874,-6.2901,-6.2884,-6.2935,-6.2877,-6.2898,-6.29,-6.2897,-6.3037,-6.3064,-6.3157,-6.2991,-6.2993,-6.2994,0,-6.296,-6.2965,-6.3029,-6.3012,-6.302,-6.3048,-6.3053,-6.307,-6.3066,-6.3053,-6.3058,-6.3025,-6.3058,-6.3004,-6.3048,-6.3009,-6.3017,-6.3011,-6.3013,-6.301,-6.295,-6.3034,-6.3186,-6.3198,-6.3014,-6.3012,-6.3011,0,-6.3066,-6.3091,-6.3131,-6.3131,-6.3115,-6.3135,-6.3129,-6.3122,-6.313,-6.3136,-6.314,-6.3152,-6.3157,-6.3166,-6.3136,-6.3101,-6.3184,-6.3129,-6.3173,-6.3173,-6.3189,-6.3188,-6.334,-6.3201,-6.3201,-6.3201,-6.3201,0,-6.3181,-6.322,-6.3178,-6.3202,-6.3245,-6.3208,-6.3252,-6.3241,-6.3235,-6.3257,-6.3214,-6.3235,-6.3197,-6.3214,-6.3193,-6.3231,-6.3235,-6.3224,-6.3217,-6.3226,-6.3227,-6.3227,-6.3218,-6.3205,-6.3204,-6.3203,-6.3202,0,-6.3305,-6.3278,-6.3318,-6.3299,-6.3296,-6.3328,-6.3312,-6.3334,-6.3317,-6.3344,-6.3349,-6.3322,-6.334,-6.3313,-6.3329,-6.3314,-6.3367,-6.3352,-6.3367,-6.3361,-6.3406,-6.3401,-6.356,-6.3578,-6.3432,-6.3434,-6.3435,0,-6.3378,-6.3407,-6.3391,-6.3402,-6.3398,-6.3417,-6.3424,-6.339,-6.34,-6.3397,-6.3419,-6.3434,-6.3443,-6.3476,-6.3458,-6.347,-6.3452,-6.3508,-6.3454,-6.3461,-6.3449,-6.3446,-6.3447,-6.3517,-6.3519,-6.3521,-6.3522,0,-6.3509,-6.3494,-6.3506,-6.3514,-6.3524,-6.3529,-6.3531,-6.3542,-6.3506,-6.352,-6.3537,-6.3545,-6.3561,-6.3575,-6.3583,-6.3577,-6.3543,-6.354,-6.355,-6.3557,-6.3563,-6.3557,-6.3393,-6.3535,-6.3534,-6.3533,-6.3532,-6.3532,-6.3607,-6.363,-6.3622,-6.3637,-6.3634,-6.3637,-6.3656,-6.3641,-6.3655,-6.3664,-6.3644,-6.3666,-6.3662,-6.3668,-6.3667,-6.3684,-6.3659,-6.3675,-6.3678,-6.3682,-6.3687,-6.3564,-6.3686,-6.3685,-6.3685,-6.3685,-6.3684,0,-6.3733,-6.3726,-6.374,-6.3743,-6.3754,-6.3723,-6.3723,-6.3735,-6.3754,-6.3753,-6.3763,-6.3783,-6.3798,-6.3782,-6.3793,-6.381,-6.3794,-6.3813,-6.381,-6.3809,-6.371,-6.3698,-6.3825,-6.3825,-6.3825,-6.3825,-6.3825,-6.3825,-6.38,-6.3835,-6.382,-6.3855,-6.3847,-6.3868,-6.387,-6.3873,-6.3871,-6.3895,-6.3906,-6.3895,-6.3888,-6.3898,-6.391,-6.3905,-6.3909,-6.3934,-6.3923,-6.383,-6.3816,-6.3802,-6.3791,-6.3936,-6.3936,-6.4019,-6.402,-6.4021]},{"header":{"parameterUnit":"m.s-1","parameterCategory":1,"la1":30.2991,"la2":30.254,"lo1":-89.0895,"lo2":-89.0444,"dy":0.0017,"dx":0.0017,"nx":28,"ny":28,"refTime":"2024-05-11T09:00:00:Z","depth":0,"parameterNumber":3,"parameterNumberName":"V-component_of_WINDS"},"data":[0,0,0,0,0,0,0,0,0,0,0,0,0,0,0,0,0,0,0,0,0,0,0,0,0,0,0,0,0,0,0,0,0,0,0,0,0,0,0,0,0,0,0,0,0,0,0,0,0,0,0,0,0,0,0,0,0,0,5.4014,5.4015,0,5.4062,5.4062,5.4063,5.4038,5.4036,5.4035,5.4034,5.4078,5.408,5.4082,0,0,0,0,0,0,0,0,0,0,0,0,0,5.3896,5.3898,5.4014,5.4015,5.4015,5.4062,5.4063,5.4063,5.4038,5.4036,5.4035,5.4033,5.4077,5.408,5.4083,0,0,0,0,0,0,0,0,0,0,0,0,0,5.3946,5.3899,5.4014,5.4008,5.4008,5.4062,5.4063,5.4063,5.4038,5.4036,5.4034,5.4033,5.4076,5.408,5.4083,5.4143,0,0,5.4094,5.4095,0,0,0,0,0,0,0,0,5.3943,5.395,5.4009,5.4009,5.4009,5.4042,5.4037,5.409,5.4039,5.4027,5.4034,5.4032,5.4067,5.4071,5.4084,5.4145,5.4147,5.4094,5.4096,5.4098,5.4099,0,0,0,0,0,0,0,5.394,5.3948,5.4033,5.4009,5.401,5.4002,5.4007,5.4047,5.4057,5.4028,5.4026,5.4032,5.4067,5.4081,5.4085,5.4147,5.4094,5.4097,5.4099,5.4101,5.426,5.4262,0,0,0,0,0,0,5.3937,5.3945,5.4031,5.4034,5.3971,5.4006,5.4011,5.4033,5.4056,5.4058,5.4034,5.4031,5.4076,5.4081,5.4086,5.4158,5.4098,5.4101,5.4103,5.4257,5.426,5.4262,0,0,0,0,0,0,5.3935,5.3945,5.4029,5.3989,5.4,5.401,5.4035,5.4035,5.4049,5.4061,5.4062,5.4047,5.4075,5.4082,5.4129,5.4159,5.4103,5.4106,5.4255,5.4258,5.4261,5.4301,0,0,0,0,0,0,5.3932,5.3944,5.3968,5.399,5.4002,5.4073,5.4037,5.4037,5.4056,5.4053,5.4074,5.4075,5.4074,5.4124,5.4133,5.4163,5.4109,5.4252,5.4256,5.426,5.4297,5.4305,5.4312,0,0,0,0,0,5.3927,5.3976,5.3969,5.398,5.4032,5.4074,5.4081,5.408,5.4059,5.4082,5.409,5.4074,5.4155,5.4129,5.4139,5.417,5.425,5.4255,5.426,5.4293,5.4303,5.4311,0,0,0,0,0,0,5.3955,5.3979,5.3972,5.4029,5.405,5.407,5.4099,5.409,5.4116,5.4111,5.4108,5.4112,5.4162,5.4171,5.4142,5.4229,5.4199,5.4206,5.4221,5.4231,5.4238,5.4234,5.4111,0,0,0,0,0,5.3968,5.4002,5.4021,5.407,5.4081,5.4089,5.4107,5.4105,5.4125,5.4133,5.4145,5.4164,5.4194,5.4213,5.4241,5.4299,5.4302,5.4325,5.4332,5.4338,5.4344,5.4374,5.4384,5.4278,5.4278,5.4278,0,0,5.3994,5.4012,5.4033,5.4076,5.4092,5.4126,5.4096,5.4133,5.4158,5.4138,5.4184,5.4194,5.4215,5.4268,5.4292,5.4277,5.4374,5.4345,5.4349,5.4351,5.438,5.439,5.4399,5.4281,5.428,5.428,0,0,5.406,5.4077,5.412,5.4138,5.4163,5.4168,5.4179,5.4201,5.4206,5.4253,5.424,5.4269,5.432,5.4336,5.435,5.4424,5.4411,5.4434,5.4471,5.4501,5.451,5.4517,5.4542,5.4552,5.4439,5.4439,5.4439,0,5.4089,5.4141,5.4143,5.4181,5.42,5.4187,5.4229,5.4246,5.4278,5.4291,5.4274,5.4339,5.4352,5.4409,5.4427,5.444,5.445,5.443,5.4509,5.4516,5.4523,5.4547,5.4557,5.4442,5.4441,5.4441,5.4441,0,5.4175,5.4212,5.4243,5.4277,5.43,5.434,5.4346,5.4368,5.4365,5.4371,5.4419,5.4435,5.4466,5.448,5.4476,5.4536,5.4526,5.451,5.4479,5.4536,5.4558,5.4567,5.4445,5.4444,5.4444,5.4443,0,0,5.4256,5.4293,5.4304,5.432,5.4348,5.4375,5.4415,5.4448,5.4466,5.449,5.4522,5.4567,5.4552,5.4569,5.4567,5.4594,5.465,5.4574,5.4574,5.4586,5.4716,5.4727,5.4737,5.4643,5.4644,5.4646,5.4714,0,5.4323,5.4394,5.4397,5.4461,5.4495,5.4484,5.4519,5.4539,5.4547,5.4575,5.4583,5.4614,5.4593,5.4603,5.463,5.4638,5.4676,5.4633,5.467,5.4672,5.4663,5.4749,5.4761,5.4824,5.4723,5.4724,5.4725,0,5.4409,5.4438,5.4506,5.4531,5.4544,5.4576,5.4606,5.4634,5.4656,5.466,5.468,5.4675,5.4714,5.4684,5.4737,5.4708,5.4724,5.4731,5.4733,5.4734,5.47,5.4751,5.4844,5.4853,5.4739,5.4738,5.4737,0,5.446,5.4516,5.4564,5.4577,5.4607,5.4629,5.4643,5.4664,5.4683,5.471,5.4722,5.4752,5.4768,5.479,5.4792,5.4771,5.4846,5.4816,5.4848,5.4848,5.4862,5.4861,5.4957,5.4876,5.4876,5.4876,5.4876,0,5.4533,5.4574,5.4587,5.4616,5.4663,5.4666,5.4711,5.4722,5.4742,5.4772,5.4764,5.4792,5.4795,5.4823,5.4825,5.4868,5.4876,5.4879,5.4878,5.4878,5.4878,5.4887,5.4882,5.4878,5.4878,5.4877,5.4877,0,5.4596,5.4607,5.4658,5.4684,5.4691,5.4724,5.4744,5.4772,5.478,5.4818,5.4827,5.4839,5.4872,5.4878,5.4916,5.4918,5.4969,5.4965,5.4962,5.4961,5.4992,5.4988,5.5095,5.5109,5.5021,5.5022,5.5022,0,5.4641,5.4673,5.4703,5.4724,5.4739,5.4772,5.4792,5.4797,5.4819,5.4848,5.4871,5.4905,5.4931,5.4985,5.4996,5.5026,5.5021,5.5057,5.5025,5.5024,5.502,5.5017,5.502,5.5062,5.5063,5.5064,5.5064,0,5.4719,5.4723,5.4754,5.4787,5.4813,5.4839,5.4863,5.488,5.4888,5.4912,5.4947,5.4968,5.5009,5.5042,5.5072,5.5083,5.5074,5.5075,5.5083,5.5082,5.5079,5.508,5.4976,5.5071,5.5071,5.507,5.507,5.5069,5.4773,5.4801,5.4827,5.4862,5.4881,5.4905,5.4932,5.4945,5.4975,5.5009,5.501,5.5049,5.5071,5.511,5.5124,5.5153,5.5142,5.5154,5.5157,5.516,5.5162,5.5076,5.5159,5.5159,5.5159,5.5158,5.5158,0,5.4849,5.4866,5.4898,5.4934,5.4961,5.4954,5.4981,5.5004,5.5038,5.5061,5.5088,5.5128,5.516,5.5175,5.5206,5.5226,5.5223,5.5234,5.5231,5.5234,5.5172,5.5161,5.5236,5.5236,5.5236,5.5236,5.5236,5.5236,5.4892,5.4939,5.4946,5.5003,5.5019,5.5058,5.5074,5.5095,5.5113,5.5159,5.5187,5.5197,5.5216,5.5249,5.5277,5.5281,5.5292,5.5304,5.5306,5.5247,5.5239,5.5231,5.522,5.5307,5.5307,5.5365,5.5366,5.5366]}]]